TimeEDT,TemperatureF,Dew PointF,Humidity,Sea Level PressureIn,VisibilityMPH,Wind Direction,Wind SpeedMPH,Gust SpeedMPH,PrecipitationIn,Events,Conditions,WindDirDegrees,DateUTC
12:56 AM,66.0,57.0,73,30.06,10.0,SSW,10.4,-,N/A,,Clear,210,2012-09-18 04:56:00
1:56 AM,66.9,55.9,68,30.05,10.0,South,9.2,-,N/A,,Clear,190,2012-09-18 05:56:00
2:56 AM,66.9,57.0,70,30.04,10.0,South,9.2,-,N/A,,Clear,180,2012-09-18 06:56:00
3:56 AM,57.9,54.0,87,30.03,10.0,Calm,Calm,-,N/A,,Clear,0,2012-09-18 07:56:00
4:56 AM,55.9,53.1,90,30.01,8.0,Calm,Calm,-,N/A,,Clear,0,2012-09-18 08:56:00
5:56 AM,66.0,61.0,84,30.00,10.0,SE,8.1,-,N/A,,Partly Cloudy,140,2012-09-18 09:56:00
6:56 AM,66.9,62.1,84,29.99,10.0,SE,9.2,-,N/A,,Overcast,130,2012-09-18 10:56:00
7:56 AM,69.1,63.0,81,29.98,10.0,SSE,15.0,-,N/A,,Mostly Cloudy,160,2012-09-18 11:56:00
8:56 AM,70.0,64.0,81,29.98,5.0,SSE,17.3,-,0.00,Rain,Light Rain,150,2012-09-18 12:56:00
9:44 AM,69.8,64.4,83,29.96,6.0,SE,16.1,-,0.00,,Haze,140,2012-09-18 13:44:00
9:56 AM,71.1,64.9,81,29.96,6.0,SE,17.3,21.9,0.00,,Haze,140,2012-09-18 13:56:00
10:56 AM,72.0,64.9,78,29.94,7.0,SSE,20.7,-,N/A,,Overcast,160,2012-09-18 14:56:00
11:39 AM,71.6,64.4,78,29.92,7.0,SSE,20.7,-,N/A,,Overcast,160,2012-09-18 15:39:00
11:42 AM,71.6,64.4,78,29.92,7.0,SSE,21.9,28.8,N/A,,Overcast,160,2012-09-18 15:42:00
11:56 AM,72.0,64.9,78,29.91,7.0,SSE,21.9,27.6,N/A,,Overcast,160,2012-09-18 15:56:00
12:56 PM,72.0,64.9,78,29.89,6.0,SSE,20.7,-,N/A,,Haze,160,2012-09-18 16:56:00
1:56 PM,72.0,66.0,81,29.86,6.0,SSE,23.0,-,0.00,,Haze,160,2012-09-18 17:56:00
2:56 PM,73.4,66.2,78,29.83,6.0,SSE,25.3,-,N/A,,Haze,160,2012-09-18 18:56:00
3:56 PM,73.0,66.9,81,29.82,6.0,South,21.9,-,N/A,,Haze,170,2012-09-18 19:56:00
4:56 PM,73.0,66.9,81,29.80,5.0,South,21.9,29.9,N/A,,Haze,170,2012-09-18 20:56:00
5:56 PM,73.0,68.0,84,29.79,5.0,South,26.5,32.2,N/A,,Haze,170,2012-09-18 21:56:00
6:44 PM,73.4,68.0,83,29.78,5.0,South,26.5,33.4,N/A,,Haze,170,2012-09-18 22:44:00
6:54 PM,73.4,68.0,83,29.77,6.0,South,26.5,33.4,N/A,,Haze,170,2012-09-18 22:54:00
6:56 PM,73.0,68.0,84,29.77,6.0,South,25.3,33.4,N/A,,Haze,170,2012-09-18 22:56:00
7:56 PM,73.0,68.0,84,29.75,6.0,South,29.9,36.8,0.00,,Haze,170,2012-09-18 23:56:00
8:56 PM,73.0,68.0,84,29.75,6.0,South,27.6,35.7,0.00,Rain,Light Rain,170,2012-09-19 00:56:00
9:56 PM,73.0,68.0,84,29.73,6.0,South,31.1,41.4,0.00,,Haze,170,2012-09-19 01:56:00
10:56 PM,73.4,69.8,88,29.72,5.0,South,29.9,35.7,N/A,Rain,Light Rain,180,2012-09-19 02:56:00
11:19 PM,71.6,69.8,94,29.71,1.8,South,28.8,35.7,0.04,Rain,Rain,180,2012-09-19 03:19:00
11:38 PM,71.6,69.8,94,29.70,2.0,South,28.8,39.1,0.11,Rain,Rain,180,2012-09-19 03:38:00
11:52 PM,71.6,69.8,94,29.70,1.8,South,31.1,41.4,0.15,Rain,Rain,180,2012-09-19 03:52:00
11:56 PM,72.0,69.1,91,29.71,2.0,South,29.9,41.4,0.16,Rain,Rain,190,2012-09-19 03:56:00